Location: Boca do Mato
(22.9085°S, 43.2930°W)
Time: 22:38:22
(UTC+00:00)

SMAP - Pass Details

Date: 14 July 2020
Orbit: 681 x 683 km, 98.1° (Epoch: 10 August)

Event Time Altitude Azimuth Distance (km) Brightness Sun altitude
Rises 08:39:47 0° 8° (N) 3,024 6.8 -12.4°
Reaches altitude 10° 08:42:00 10° 6° (N) 2,116 5.9 -12.0°
Maximum altitude 08:46:37 72° 281° (WNW) 721 3.0 -10.9°
Drops below altitude 10° 08:51:18 10° 197° (SSW) 2,141 5.3 -9.9°
Sets 08:53:34 0° 194° (SSW) 3,064 6.1 -9.4°
